"Time","Temp","Dewpoint","Humidity","Pressure","Direction","Speed","Gust","Precip","PrecipRate"
"00:04:57","49.9","27.8","42.1","29.85","12","0.3","2.4","0.00","0.00"
"00:09:56","49.1","27.5","43","29.85","9","1.7","3.6","0.00","0.00"
"00:14:56","48.3","27.6","44.6","29.85","9","0.8","2.4","0.00","0.00"
"00:19:56","47.4","27.6","45.8","29.85","68","1.7","3.6","0.00","0.00"
"00:24:58","46.8","28","47.8","29.85","89","1.1","3.6","0.00","0.00"
"00:29:59","46","27.4","48","29.87","89","0.8","3.6","0.00","0.00"
"00:34:58","45.6","27.6","49.1","29.87","89","1.5","3.6","0.00","0.00"
"00:39:56","44.8","27.7","50.9","29.87","89","1","3.6","0.00","0.00"
"00:44:56","44.2","27.2","51","29.88","113","2","4.8","0.00","0.00"
"00:49:59","44","26.9","50.8","29.88","116","0","1.2","0.00","0.00"
"00:54:59","44","27.3","51.5","29.88","116","0","0","0.00","0.00"
"00:59:58","43.8","27.2","51.8","29.89","116","0","0","0.00","0.00"
"01:04:57","43.5","27.4","53","29.89","116","1.1","2.4","0.00","0.00"
"01:09:59","43","27.2","53.5","29.89","98","0.7","4.8","0.00","0.00"
"01:14:59","42.5","27.3","54.7","29.90","337","1.6","4.8","0.00","0.00"
"01:19:58","42.1","26.9","54.6","29.90","326","1.2","6","0.00","0.00"
"01:24:59","42.7","27","53.7","29.90","311","1.4","3.6","0.00","0.00"
"01:29:58","43","26.9","52.5","29.90","319","1.7","10.8","0.00","0.00"
"01:34:57","43.8","26.9","51.2","29.90","343","2.2","10.4","0.00","0.00"
"01:39:58","44.5","27.1","50.2","29.90","331","2","3.6","0.00","0.00"
"01:44:57","44.8","26.9","49.1","29.91","336","2.1","4.8","0.00","0.00"
"01:49:56","45.3","27.1","48.6","29.91","339","3","4.8","0.00","0.00"
"01:54:58","45.9","27.2","47.6","29.91","321","2.4","7.2","0.00","0.00"
"01:59:57","46.6","27.1","46.3","29.91","330","4.4","10.8","0.00","0.00"
"02:04:56","47.5","27.3","45.1","29.91","318","2.9","7.2","0.00","0.00"
"02:09:58","47.5","27.5","45.7","29.91","318","2.8","7.2","0.00","0.00"
"02:14:58","47","27.2","45.8","29.92","342","3","6","0.00","0.00"
"02:19:57","47.2","27.2","45.5","29.92","332","2.3","4.6","0.00","0.00"
"02:24:58","47","27.4","46.3","29.92","322","3.5","8.4","0.00","0.00"
"02:29:56","47","27.3","46","29.93","319","3","6","0.00","0.00"
"02:34:56","47.3","27.2","45.4","29.93","318","5.3","15","0.00","0.00"
"02:39:57","47.7","27.4","45","29.93","325","5","11.5","0.00","0.00"
"02:44:56","47.7","27.6","45.4","29.93","339","3.5","6","0.00","0.00"
"02:49:59","47.4","27.3","45.5","29.93","328","4","12","0.00","0.00"
"02:54:56","47.2","27.4","45.8","29.93","344","4.4","8.4","0.00","0.00"
"02:59:59","47.2","27.5","46","29.93","333","3.1","8.1","0.00","0.00"
"03:04:56","46.9","27.5","46.6","29.93","348","2.4","6.9","0.00","0.00"
"03:09:59","46.5","27.3","46.8","29.93","347","2.2","7.2","0.00","0.00"
"03:14:58","46.2","27.4","47.7","29.94","347","0.8","4.6","0.00","0.00"
"03:19:57","45.8","27.2","48","29.94","347","0.3","2.4","0.00","0.00"
"03:24:57","45.1","27.2","49.1","29.94","347","1.2","2.4","0.00","0.00"
"03:29:56","44.4","27.2","50.7","29.95","347","0.2","1.2","0.00","0.00"
"03:34:59","43.6","27.2","52.3","29.95","347","0","0","0.00","0.00"
"03:39:57","42.8","26.9","53.1","29.95","347","0","0","0.00","0.00"
"03:44:56","42.1","26.8","54.4","29.96","347","0","0","0.00","0.00"
"03:49:57","41.6","26.7","55.2","29.96","347","0","0","0.00","0.00"
"03:54:59","41","26.6","56.2","29.96","347","0","0","0.00","0.00"
"03:59:57","40.4","26.5","57.5","29.97","347","0","0","0.00","0.00"
"04:04:57","39.8","26.5","58.9","29.97","347","0","0","0.00","0.00"
"04:09:59","39.1","26.7","60.8","29.97","347","0.1","2.4","0.00","0.00"
"04:14:56","38.4","27.1","63.5","29.97","347","0.4","2.4","0.00","0.00"
"04:19:59","37.8","26.6","63.8","29.97","347","0","0","0.00","0.00"
"04:24:57","37.5","26.4","64","29.97","347","0","0","0.00","0.00"
"04:29:56","37.2","26.5","65.2","29.99","347","0","0","0.00","0.00"
"04:34:59","36.7","26.4","66","29.99","347","0","0","0.00","0.00"
"04:39:57","36.3","26.3","66.6","29.99","347","0","1.2","0.00","0.00"
"04:44:56","35.8","26.4","68.3","30.00","347","0.4","1.2","0.00","0.00"
"04:49:59","35.2","26.4","70","30.00","347","0.8","2.4","0.00","0.00"
"04:54:56","34.7","26.3","71","30.00","347","0","0","0.00","0.00"
"04:59:56","34.9","26.2","70.2","30.01","347","0.7","3.6","0.00","0.00"
"05:04:59","35.4","26.5","69.7","30.01","347","2","3.5","0.00","0.00"
"05:09:57","35.6","26.4","69.1","30.01","347","0.3","2.4","0.00","0.00"
"05:14:56","35.1","26.3","70.1","30.02","348","2","3.6","0.00","0.00"
"05:19:59","34.5","26.1","71","30.02","28","2.4","3.6","0.00","0.00"
"05:24:59","34.1","26","71.9","30.02","32","0.1","2.3","0.00","0.00"
"05:29:57","33.9","25.9","72.4","30.03","32","0","0","0.00","0.00"
"05:34:56","33.7","26","73","30.03","32","0.2","2.4","0.00","0.00"
"05:39:57","33.7","26","73","30.03","32","2.1","3.6","0.00","0.00"
"05:44:56","33.5","26.1","74","30.04","32","1.7","3.5","0.00","0.00"
"05:49:58","33.2","25.9","74.3","30.04","32","0.4","1.2","0.00","0.00"
"05:54:58","32.8","25.7","75","30.04","32","0","0","0.00","0.00"
"05:59:57","32.6","25.7","75.6","30.05","32","0","0","0.00","0.00"
"06:04:56","32.3","25.7","76.5","30.05","32","0","0","0.00","0.00"
"06:09:56","32.1","25.7","77","30.05","32","0","0","0.00","0.00"
"06:14:59","31.8","25.4","77","30.05","32","1.2","2.4","0.00","0.00"
"06:19:58","31.6","25.5","78","30.05","32","1.9","3.6","0.00","0.00"
"06:24:57","31.4","25.4","78.4","30.05","32","1","3.5","0.00","0.00"
"06:29:56","31.3","25.5","79","30.05","32","0","0","0.00","0.00"
"06:34:59","31.2","25.4","79","30.05","32","0","0","0.00","0.00"
"06:39:56","31","25.2","79","30.05","32","0","0","0.00","0.00"
"06:44:59","30.9","25.2","79","30.05","32","0","0","0.00","0.00"
"06:49:58","30.9","25.2","79","30.05","32","0","0","0.00","0.00"
"06:54:57","30.6","25.3","80.2","30.05","32","0","0","0.00","0.00"
"06:59:58","30.4","25.3","81","30.06","32","0","0","0.00","0.00"
"07:04:57","30.2","25.1","81","30.06","32","0","0","0.00","0.00"
"07:09:59","30.1","25.1","81.3","30.06","32","0","0","0.00","0.00"
"07:14:58","29.9","25.1","81.9","30.07","32","0","0","0.00","0.00"
"07:19:57","29.8","25.2","82.8","30.07","32","0","0","0.00","0.00"
"07:24:59","29.6","25.1","83","30.07","32","0","0","0.00","0.00"
"07:29:58","29.7","25.2","83","30.09","32","0","0","0.00","0.00"
"07:34:57","29.9","25.4","83","30.09","32","0","0","0.00","0.00"
"07:39:58","29.9","25.6","83.6","30.09","32","0","0","0.00","0.00"
"07:44:57","30","25.8","84","30.11","32","0","0","0.00","0.00"
"07:49:59","30.2","25.9","84","30.11","32","0","0","0.00","0.00"
"07:54:57","30.5","26.2","84","30.11","32","0","0","0.00","0.00"
"07:59:57","30.7","26.4","84","30.12","32","0","0","0.00","0.00"
"08:04:56","30.9","26.6","84","30.12","32","0","0","0.00","0.00"
"08:09:58","31.1","26.6","83.2","30.12","32","0","0","0.00","0.00"
"08:14:57","31.7","27.1","83","30.12","32","0","0","0.00","0.00"
"08:19:56","32.9","28.2","82.8","30.12","32","0","0","0.00","0.00"
"08:24:58","35.6","29.7","78.9","30.12","32","0","0","0.00","0.00"
"08:29:56","37.6","30.6","75.7","30.13","32","0","0","0.00","0.00"
"08:34:58","39","30.9","72.6","30.13","32","0","0","0.00","0.00"
"08:39:59","40.7","31.5","69.6","30.13","32","0","0","0.00","0.00"
"08:44:58","41.6","31.5","67.2","30.15","32","0","0","0.00","0.00"
"08:49:56","42.7","32","65.8","30.15","32","0","0","0.00","0.00"
"08:54:56","44.2","32.2","62.5","30.15","32","0","0","0.00","0.00"
"08:59:59","45.3","32.4","60.5","30.15","32","0","0","0.00","0.00"
"09:04:58","46.1","33.5","61.2","30.15","32","0","0","0.00","0.00"
"09:09:56","46.7","32.9","58.6","30.15","32","0","0","0.00","0.00"
"09:14:56","48.1","33.5","57","30.15","32","0","0","0.00","0.00"
"09:19:58","49.2","33","53.5","30.15","32","0.9","3.6","0.00","0.00"
"09:24:56","49.2","31.4","50.3","30.15","34","1.2","3.6","0.00","0.00"
"09:29:58","48.9","31.4","50.8","30.16","55","2","3.6","0.00","0.00"
"09:34:57","49.3","32","51.1","30.16","68","2.2","4.8","0.00","0.00"
"09:39:58","49.4","31.6","50","30.16","86","2","4.6","0.00","0.00"
"09:44:57","50.1","31.9","49.4","30.16","96","1.4","3.6","0.00","0.00"
"09:49:59","50.3","31.1","47.6","30.16","105","1.6","4.8","0.00","0.00"
"09:54:59","50.8","31.8","48.1","30.16","121","1.1","4.6","0.00","0.00"
"09:59:58","51","31.6","47.3","30.16","121","2.2","4.8","0.00","0.00"
"10:04:57","51.2","32.4","48.5","30.16","122","1.6","4.6","0.00","0.00"
"10:09:59","51.5","32.1","47.3","30.16","123","1.2","3.6","0.00","0.00"
"10:14:59","51.7","32","46.8","30.16","123","1.2","3.6","0.00","0.00"
"10:19:57","51.7","31.9","46.6","30.15","124","2.6","6","0.00","0.00"
"10:24:59","52.5","33","47.3","30.15","117","0.9","2.4","0.00","0.00"
"10:29:58","53","32.6","45.8","30.15","117","1.4","3.6","0.00","0.00"
"10:34:57","52.4","31.9","45.3","30.15","117","1.1","3.5","0.00","0.00"
"10:39:59","52.9","33.2","47.1","30.15","126","2.4","4.8","0.00","0.00"
"10:44:58","53.8","33.3","45.7","30.15","76","2.5","4.8","0.00","0.00"
"10:49:57","53.6","32.8","45.1","30.15","45","1","3.6","0.00","0.00"
"10:54:56","54.4","33.7","45.4","30.15","38","1.6","3.6","0.00","0.00"
"10:59:59","54.3","33","44.4","30.15","50","1.8","4.8","0.00","0.00"
"11:04:58","54.4","34","46","30.14","58","2.4","6","0.00","0.00"
"11:09:56","54.2","33.2","44.8","30.14","67","2.6","5.8","0.00","0.00"
"11:14:59","54.8","33.3","44.1","30.15","26","2.7","6","0.00","0.00"
"11:19:57","54.7","33.8","45.2","30.15","91","1.9","4.6","0.00","0.00"
"11:24:57","55.9","33.6","43","30.15","345","1.8","4.8","0.00","0.00"
"11:29:57","55.6","32.3","41.1","30.15","15","1.5","3.6","0.00","0.00"
"11:34:56","55.4","31.8","40.6","30.14","349","1.9","6","0.00","0.00"
"11:39:58","55.8","31.2","39","30.14","345","2.8","12","0.00","0.00"
"11:44:57","56.1","32.1","40","30.14","344","1.3","5.8","0.00","0.00"
"11:49:56","56.9","33.3","40.8","30.14","68","2.8","7.2","0.00","0.00"
"11:54:57","57.4","32.1","38.2","30.14","263","3.3","6.9","0.00","0.00"
"11:59:56","57.3","32.9","39.6","30.14","334","0.4","4.6","0.00","0.00"
"12:04:59","57.6","30.9","36.2","30.13","352","4.2","10.8","0.00","0.00"
"12:09:57","57","31","37.2","30.13","9","2.2","4.8","0.00","0.00"
"12:14:56","57.8","32.1","37.8","30.13","266","3.7","8.4","0.00","0.00"
"12:19:59","57.7","29.7","34.3","30.13","323","5.6","12","0.00","0.00"
"12:24:56","57.9","30","34.5","30.13","234","2.2","6.9","0.00","0.00"
"12:29:55","58.1","30.8","35.3","30.13","212","1.7","7.2","0.00","0.00"
"12:34:57","58.5","31.4","35.7","30.12","354","2.1","4.8","0.00","0.00"
"12:39:59","58.5","30","33.7","30.12","15","2","4.8","0.00","0.00"
"12:44:58","58.8","30.9","34.7","30.12","42","1.4","3.6","0.00","0.00"
"12:49:57","58.9","32.2","36.4","30.12","87","3.2","7.2","0.00","0.00"
"12:54:57","58.7","32.5","37.1","30.12","98","4.5","8.4","0.00","0.00"
"12:59:59","59.3","32.3","36","30.12","143","2.9","5.8","0.00","0.00"
"13:04:58","59.3","31.7","35.1","30.11","109","2.1","3.6","0.00","0.00"
"13:09:56","59.7","31.9","34.8","30.11","89","2.6","6","0.00","0.00"
"13:14:59","59.8","31.1","33.8","30.11","128","2.3","6","0.00","0.00"
"13:19:58","60.2","31.2","33.4","30.10","249","2.6","4.8","0.00","0.00"
"13:24:56","59.7","30.9","33.5","30.10","234","2.7","6","0.00","0.00"
"13:29:58","60","32.4","35.3","30.10","147","3","6","0.00","0.00"
"13:34:57","60.6","32.7","34.8","30.10","196","3.3","8.4","0.00","0.00"
"13:39:59","60.3","32","34.3","30.10","102","3.1","8.4","0.00","0.00"
"13:44:58","60.4","32.7","35.2","30.10","141","3","7.2","0.00","0.00"
"13:49:56","61.1","32.4","34","30.09","196","3.7","8.4","0.00","0.00"
"13:54:57","60.8","32.1","33.9","30.09","165","3.8","13.2","0.00","0.00"
"13:59:59","60.4","32.4","34.8","30.09","142","2.6","6","0.00","0.00"
"14:04:58","60.8","32.6","34.6","30.09","143","4.1","8.4","0.00","0.00"
"14:09:56","61","32.1","33.6","30.09","213","5.3","9.6","0.00","0.00"
"14:14:59","61.4","32.9","34.1","30.09","163","3.2","8.4","0.00","0.00"
"14:19:57","61","31.9","33.4","30.09","127","3.3","7.2","0.00","0.00"
"14:24:59","60.8","32.6","34.6","30.09","108","3.3","8.4","0.00","0.00"
"14:29:58","60.9","32.5","34.3","30.09","114","3.6","7.2","0.00","0.00"
"14:34:56","61.1","32.5","34","30.08","167","3.4","8.4","0.00","0.00"
"14:39:57","61","31.5","32.8","30.08","171","3.5","8.4","0.00","0.00"
"14:44:56","60.5","30.5","32","30.08","154","4.6","8.4","0.00","0.00"
"14:49:58","61.1","31.9","33.2","30.08","144","2.7","7.2","0.00","0.00"
"14:54:59","62.2","31.5","31.4","30.08","170","2.6","6","0.00","0.00"
"14:59:58","62.3","31.5","31.3","30.09","187","3.4","6","0.00","0.00"
"15:04:57","62","31.1","31.1","30.09","124","2.9","6","0.00","0.00"
"15:09:59","62.3","31.3","31.1","30.09","190","3.6","12","0.00","0.00"
"15:14:59","62.6","31.7","31.3","30.09","203","5","12","0.00","0.00"
"15:19:58","62.3","31.3","31.1","30.09","205","2.9","6","0.00","0.00"
"15:24:58","62.5","31.8","31.6","30.09","162","4.1","9.6","0.00","0.00"
"15:29:56","62.3","31.2","30.9","30.09","176","4.1","8.4","0.00","0.00"
"15:34:59","62.9","31.6","30.8","30.09","216","5.1","12","0.00","0.00"
"15:39:56","62.3","31.3","31","30.09","208","5.3","10.8","0.00","0.00"
"15:44:59","61.7","30.4","30.5","30.09","172","4.7","10.8","0.00","0.00"
"15:49:58","61.4","31.4","32.2","30.09","149","3","8.1","0.00","0.00"
"15:54:56","62","31.4","31.6","30.09","200","5.5","12","0.00","0.00"
"15:59:58","62","31.9","32.2","30.10","176","4.1","10.8","0.00","0.00"
"16:04:57","61.7","31.9","32.4","30.10","165","4.3","9.6","0.00","0.00"
"16:09:59","61.7","32.4","33.2","30.10","156","4.1","8.4","0.00","0.00"
"16:14:59","61.6","31.8","32.5","30.10","179","3.6","7.2","0.00","0.00"
"16:19:57","61.7","32.4","33.2","30.10","178","3","8.4","0.00","0.00"
"16:24:57","61.5","32.4","33.3","30.10","196","3.3","6.9","0.00","0.00"
"16:29:56","60.9","32.7","34.5","30.10","187","4","13.2","0.00","0.00"
"16:34:58","60.3","32.7","35.3","30.10","184","2.8","8.4","0.00","0.00"
"16:39:58","60.3","32.1","34.5","30.10","185","3.8","8.1","0.00","0.00"
"16:44:57","60.1","32.2","34.8","30.11","164","2.5","6","0.00","0.00"
"16:49:59","60.1","32.1","34.7","30.11","174","2.7","7.2","0.00","0.00"
"16:54:57","60","31.9","34.6","30.11","171","1.7","4.8","0.00","0.00"
"16:59:56","59.7","31.7","34.5","30.11","154","2.1","4.8","0.00","0.00"
"17:04:59","59.5","31.4","34.4","30.11","157","2.1","4.6","0.00","0.00"
"17:09:57","59.3","31.7","35.1","30.11","155","1.7","3.6","0.00","0.00"
"17:14:56","59","31.8","35.5","30.11","159","1.8","4.8","0.00","0.00"
"17:19:59","58.8","31.3","35.2","30.11","153","2.2","4.8","0.00","0.00"
"17:24:56","58.6","31.5","35.7","30.11","157","1.3","4.8","0.00","0.00"
"17:29:59","58.4","30.8","35","30.11","142","1.1","4.8","0.00","0.00"
"17:34:57","58.3","30.7","35","30.11","146","2","4.8","0.00","0.00"
"17:39:59","58.1","30.6","35","30.11","153","1.2","3.5","0.00","0.00"
"17:44:58","57.8","30.8","35.6","30.12","153","0.8","3.6","0.00","0.00"
"17:49:57","57.4","30.6","36","30.12","153","1.2","3.6","0.00","0.00"
"17:54:57","57.1","30.9","36.7","30.12","153","0.1","2.3","0.00","0.00"
"17:59:56","56.8","30.5","36.6","30.13","153","0.6","2.4","0.00","0.00"
"18:04:59","56.5","30.9","37.7","30.13","153","0.4","2.4","0.00","0.00"
"18:09:57","56.1","30.8","38","30.13","153","0.7","3.6","0.00","0.00"
"18:14:57","55.8","31.1","38.8","30.13","150","1.8","3.6","0.00","0.00"
"18:19:56","55.7","31.4","39.6","30.13","143","2.4","4.8","0.00","0.00"
"18:24:56","55.6","31.6","40","30.13","127","2.4","4.6","0.00","0.00"
"18:29:59","55.6","31.9","40.5","30.15","128","1.3","3.6","0.00","0.00"
"18:34:58","55.4","32.2","41.2","30.15","128","1.7","3.6","0.00","0.00"
"18:39:59","55.1","32.1","41.5","30.15","128","1","2.4","0.00","0.00"
"18:44:59","54.9","32.1","41.8","30.15","128","1.1","2.4","0.00","0.00"
"18:49:58","54.7","32","42","30.15","128","0.9","2.4","0.00","0.00"
"18:54:56","54.6","32.1","42.4","30.15","128","0.7","2.4","0.00","0.00"
"18:59:59","54.3","32.3","43.1","30.16","128","0.8","2.4","0.00","0.00"
"19:04:59","54","32.5","43.8","30.16","128","1.1","2.4","0.00","0.00"
"19:09:57","53.7","31.9","43.3","30.16","122","1.9","4.8","0.00","0.00"
"19:14:58","53.9","32","43.2","30.16","132","2.6","4.8","0.00","0.00"
"19:19:57","54.1","32.1","43","30.16","126","2","4.8","0.00","0.00"
"19:24:58","54.1","32.2","43.3","30.16","118","2.1","4.8","0.00","0.00"
"19:29:57","54","32.5","43.9","30.16","119","2.5","4.8","0.00","0.00"
"19:34:59","53.9","32.4","43.9","30.15","117","2.1","4.6","0.00","0.00"
"19:39:57","53.8","32.4","44","30.15","127","2.7","4.8","0.00","0.00"
"19:44:56","53.7","32.4","44.3","30.15","134","0.9","3.5","0.00","0.00"
"19:49:59","53.5","32.5","44.6","30.15","135","1.8","4.8","0.00","0.00"
"19:54:56","53.4","32.3","44.5","30.15","123","2.4","6","0.00","0.00"
"19:59:59","53.4","32.4","44.6","30.15","126","2","3.6","0.00","0.00"
"20:04:58","53.4","32.5","44.9","30.15","128","1.6","4.8","0.00","0.00"
"20:09:56","53.4","32.6","45.1","30.15","125","2","7.2","0.00","0.00"
"20:14:59","53.3","32.7","45.4","30.15","119","2.1","4.8","0.00","0.00"
"20:19:58","53.2","32.6","45.4","30.15","138","2.2","6","0.00","0.00"
"20:24:57","53.1","32.6","45.7","30.15","208","2.2","5.8","0.00","0.00"
"20:29:59","53","32.8","46","30.16","134","2.1","6","0.00","0.00"
"20:34:58","52.9","33.1","46.8","30.16","145","2.4","4.8","0.00","0.00"
"20:39:56","52.7","33","47","30.16","150","1.7","4.8","0.00","0.00"
"20:44:59","52.5","32.9","47.1","30.17","175","2.3","6","0.00","0.00"
"20:49:58","52.4","32.7","47","30.17","149","2.8","4.8","0.00","0.00"
"20:54:59","52.4","32.8","47.2","30.17","131","1.7","3.6","0.00","0.00"
"20:59:58","52.3","32.8","47.3","30.17","144","2.2","6","0.00","0.00"
"21:04:57","52.1","33","48","30.16","146","2.7","5.8","0.00","0.00"
"21:09:59","52","33.1","48.5","30.16","137","2.2","7.2","0.00","0.00"
"21:14:59","51.8","33.2","48.9","30.16","139","2.5","6.9","0.00","0.00"
"21:19:57","51.7","33.2","49.3","30.15","173","2.3","4.6","0.00","0.00"
"21:24:56","51.6","33.5","49.8","30.15","162","1.8","4.8","0.00","0.00"
"21:29:59","51.5","33.5","50","30.16","146","1.2","3.6","0.00","0.00"
"21:34:58","51.4","33.4","50.1","30.16","146","1.5","3.6","0.00","0.00"
"21:39:57","51.2","33.7","51","30.16","146","1.1","3.6","0.00","0.00"
"21:44:56","51","33.7","51.5","30.16","160","1.6","4.8","0.00","0.00"
"21:49:59","50.9","33.8","51.7","30.16","162","1.4","3.6","0.00","0.00"
"21:54:59","50.8","33.8","52","30.16","140","2.4","6","0.00","0.00"
"21:59:58","50.7","34","52.5","30.16","138","1.8","4.6","0.00","0.00"
"22:04:57","50.7","34.2","53","30.15","124","2.6","4.8","0.00","0.00"
"22:09:59","50.6","34.5","54","30.15","115","1.4","3.6","0.00","0.00"
"22:14:59","50.4","34.6","54.5","30.15","115","0.8","3.5","0.00","0.00"
"22:19:58","50.2","34.5","54.8","30.14","115","1.3","2.4","0.00","0.00"
"22:24:59","50","34.4","54.8","30.14","115","0.5","2.4","0.00","0.00"
"22:29:58","49.9","34.4","55","30.14","115","0.5","2.4","0.00","0.00"
"22:34:58","49.8","34.5","55.4","30.14","115","0.2","2.4","0.00","0.00"
"22:39:56","49.7","34.7","56.2","30.14","115","0.9","2.4","0.00","0.00"
"22:44:56","49.6","34.5","56.1","30.14","115","1.7","3.6","0.00","0.00"
"22:49:59","49.5","34.7","56.7","30.12","116","1.8","4.8","0.00","0.00"
"22:54:57","49.4","34.8","57","30.12","115","1.3","3.6","0.00","0.00"
"22:59:56","49.4","34.8","57","30.12","114","2","4.8","0.00","0.00"
"23:04:56","49.4","35","57.5","30.12","132","1.1","4.8","0.00","0.00"
"23:09:58","49.2","35.2","58.4","30.12","135","2","4.6","0.00","0.00"
"23:14:57","49","35.3","59","30.13","173","2.3","4.8","0.00","0.00"
"23:19:57","48.9","35","58.5","30.13","162","1.5","3.6","0.00","0.00"
"23:24:57","49","34.9","58.2","30.13","117","1.7","4.8","0.00","0.00"
"23:29:56","49.1","35.2","58.6","30.13","125","2.7","6","0.00","0.00"
"23:34:59","49.1","35.4","59","30.12","153","2.3","6","0.00","0.00"
"23:39:59","49.1","35.4","59","30.12","137","2.6","6","0.00","0.00"
"23:44:58","49.1","35.4","59","30.12","164","2","4.8","0.00","0.00"
"23:49:57","49","35.4","59.2","30.12","167","1.7","4.6","0.00","0.00"
